Greenville, AL

12:16 PM CDT on September 21, 2017 (GMT -0500)
Greenville Municipal

Weather History for KPRN - March, 2013

Change the Weather History Date:

Monday, March 4, 2013

  Actual Average Record
Temperature  
Mean Temperature 47 °F -  
Max Temperature 64 °F 67 °F 84 °F (1955)
Min Temperature 30 °F 44 °F 18 °F (1943)
Degree Days  
Heating Degree Days 18    
Moisture  
Dew Point 32 °F    
Average Humidity 59    
Maximum Humidity 88    
Minimum Humidity 25    
Precipitation  
Precipitation 0.00 in - - ()
Sea Level Pressure  
Sea Level Pressure 30.10 in    
Wind  
Wind Speed 4 mph (SSE)    
Max Wind Speed 14 mph    
Max Gust Speed 21 mph    
Visibility 10 miles    
Events      
Averages and records for this station are not official NWS values.
T = Trace of Precipitation, MM = Missing Value Source: NWS Daily Summary

Daily Weather History Graph

Daily Weather History Graph

Search for Another Location

Airport or City:

Trip Planner

Search our weather history database for the weather conditions in past years. The results will help you decide how hot, cold, wet, or windy it might be!

Date:

Astronomy

Mar. 04, 2013 Rise Set
Actual Time 6:09 AM CST 5:46 PM CST
Civil Twilight 5:45 AM CST 6:11 PM CST
Nautical Twilight 5:17 AM CST 6:39 PM CST
Astronomical Twilight 4:48 AM CST 7:07 PM CST
Moon 12:04 AM CST (3/4) 10:43 AM CST (3/4)
Length of Visible Light 12h 25m
Length of Day
11h 37m
Waning Gibbous, 52% of the Moon is Illuminated
Mar 4
Waning Gibbous
Mar 4
Last Quarter
Mar 11
New
Mar 19
First Quarter
Mar 27
Full

Hourly Weather History & Observations

Time (CST) Temp. Dew Point Humidity Pressure Visibility Wind Dir Wind Speed Gust Speed Precip Events Conditions
12:56 AM 30.0 °F 27.0 °F 88% 30.15 in 10.0 mi Calm Calm - N/A   Clear
1:56 AM 30.0 °F 26.1 °F 85% 30.14 in 10.0 mi Calm Calm - N/A   Clear
2:56 AM 30.0 °F 26.1 °F 85% 30.13 in 10.0 mi Calm Calm - N/A   Clear
3:56 AM 30.0 °F 27.0 °F 88% 30.14 in 10.0 mi Calm Calm - N/A   Clear
4:56 AM 30.0 °F 26.1 °F 85% 30.16 in 10.0 mi Calm Calm - N/A   Clear
5:56 AM 30.0 °F 26.1 °F 85% 30.17 in 10.0 mi Calm Calm - N/A   Clear
6:56 AM 30.9 °F 27.0 °F 85% 30.17 in 10.0 mi Calm Calm - N/A   Clear
7:56 AM 39.9 °F 28.9 °F 65% 30.18 in 10.0 mi Calm Calm - N/A   Clear
8:56 AM 48.0 °F 23.0 °F 37% 30.18 in 10.0 mi SE 4.6 mph - N/A   Clear
9:56 AM 53.1 °F 21.9 °F 30% 30.17 in 10.0 mi SE 5.8 mph - N/A   Clear
10:56 AM 57.0 °F 21.9 °F 26% 30.17 in 10.0 mi Variable 5.8 mph - N/A   Clear
11:56 AM 60.1 °F 24.1 °F 25% 30.12 in 10.0 mi SSE 10.4 mph - N/A   Clear
12:56 PM 63.0 °F 27.0 °F 26% 30.09 in 10.0 mi South 10.4 mph - N/A   Clear
1:56 PM 64.9 °F 28.9 °F 26% 30.06 in 10.0 mi SSW 11.5 mph 17.3 mph N/A   Clear
2:56 PM 63.0 °F 30.0 °F 29% 30.05 in 10.0 mi South 11.5 mph 17.3 mph N/A   Clear
3:56 PM 64.0 °F 33.1 °F 31% 30.03 in 10.0 mi SE 10.4 mph - N/A   Clear
4:56 PM 63.0 °F 37.9 °F 40% 30.02 in 9.0 mi South 13.8 mph 20.7 mph N/A   Clear
5:56 PM 59.0 °F 41.0 °F 51% 30.03 in 9.0 mi South 11.5 mph 18.4 mph N/A   Clear
6:56 PM 57.0 °F 43.0 °F 59% 30.05 in 10.0 mi South 11.5 mph 19.6 mph N/A   Partly Cloudy
7:56 PM 55.0 °F 44.1 °F 67% 30.02 in 10.0 mi SSE 9.2 mph - N/A   Clear
8:56 PM 54.0 °F 46.0 °F 75% 30.02 in 10.0 mi SSE 9.2 mph 20.7 mph N/A   Clear
9:56 PM 53.1 °F 45.0 °F 74% 30.02 in 10.0 mi South 8.1 mph - N/A   Clear
10:56 PM 53.1 °F 45.0 °F 74% 30.02 in 10.0 mi SSE 8.1 mph - N/A   Overcast
11:56 PM 53.1 °F 46.0 °F 77% 30.03 in 10.0 mi SSE 6.9 mph - N/A   Overcast